Regional Weather Roundup
Issued by NWS Sioux Falls, SD

Home | Current Version | Previous Version | Graphics & Text | Print | Product List | Glossary Off
Versions: 1 2 3 4 5 6 7 8 9 10 11 12 13 14 15 16 17 18 19 20 21 22 23 24 25 26 27 28 29 30 31 32 33 34 35 36 37 38 39 40 41 42 43 44 45 46 47 48 49 50

000
ASUS43 KFSD 031710
RWRFSD

WEATHER ROUNDUP FOR SE SOUTH DAKOTA/SW MINNESOTA/NW IOWA
NATIONAL WEATHER SERVICE SIOUX FALLS SD
1200 PM CDT TUE MAY 03 2016

NOTE: "FAIR" INDICATES FEW OR NO CLOUDS BELOW 12,000 FEET WITH NO
SIGNIFICANT WEATHER AND OR OBSTRUCTIONS TO VISIBILITY.


SDZ038>040-050-052>070-031800-
SOUTHEAST SOUTH DAKOTA

CITY           SKY/WX    TMP DP  RH WIND       PRES   REMARKS
BROOKINGS      SUNNY     62  45  53 W20G25    29.95F
CHAMBERLAIN    SUNNY     63  51  63 W13       30.04F
HURON          SUNNY     66  44  45 NW20G25   29.98F
MADISON        FAIR      59  45  58 W17G25    29.98F
MITCHELL       SUNNY     64  47  53 W17       30.01F
SIOUX FALLS    MOSUNNY   63  44  50 NW16G24   29.98F
WINNER         FAIR      63  43  48 W13       30.06F
YANKTON        MOSUNNY   63  45  51 W10       30.02F
$$

MNZ071-072-080-081-089-090-097-098-031800-
SOUTHWEST MINNESOTA

CITY           SKY/WX    TMP DP  RH WIND       PRES   REMARKS
FAIRMONT       SUNNY     63  39  42 W13       29.94F
JACKSON        SUNNY     63  36  36 W15       29.96F
LUVERNE        MOSUNNY   63  43  48 W20       29.98F
MARSHALL       SUNNY     65  42  43 W17G26    29.92F
MONTEVIDEO     SUNNY     70  41  35 NW14G23   29.91F
PIPESTONE      MOSUNNY   63  45  51 NW20      29.96F
REDWOOD FALLS  SUNNY     66  39  37 W18G24    29.91F
TRACY          SUNNY     65  43  44 W9G18     29.94F
WINDOM         MOSUNNY   64  39  39 SW18      29.94F
WORTHINGTON    SUNNY     61  45  55 W20G26    29.97F
$$

IAZ001>003-012>014-020>022-031-032-NEZ013-014-SDZ071-031800-
NORTHWEST IOWA

CITY           SKY/WX    TMP DP  RH WIND       PRES   REMARKS
CHEROKEE       SUNNY     64  46  52 W12G17    30.00F
DENISON        SUNNY     64  45  48 W14       30.00F
ESTHERVILLE    MOSUNNY   63  43  48 W16G24    29.96F
LE MARS        SUNNY     63  45  51 W13       30.01F
ORANGE CITY    SUNNY     63  46  55 NW16      30.00F
SHELDON        MOSUNNY   63  45  51 W18       29.97F
SIOUX CITY     SUNNY     65  47  52 W10       30.02F
SPENCER        SUNNY     64  42  44 W16       29.98F
STORM LAKE     SUNNY     63  43  48 W16       30.00F
$$

ABBREVIATIONS USED IN REMARKS
   TC - TEMPERATURE IN CELSIUS
  WCI - WIND CHILL INDEX
   HX - HEAT INDEX
  VSB - VISIBILITY




USA.gov is the U.S. government's official web portal to all federal, state and local government web resources and services.